Orbital Elements at Epoch 2459000.5 (2020-May-31.0) TDB
Reference: JPL 13 (heliocentric ecliptic J2000)
Element | Value | Uncertainty (1-sigma) | Units |
e | .09611049696287173 | 6.3258e-08 | |
a | 2.627727161301699 | 2.1903e-08 | au |
q | 2.375174997946157 | 1.6572e-07 | au |
i | 2.078841012398502 | 7.557e-06 | deg |
node | 349.5361072894312 | 0.00017303 | deg |
peri | 62.65288052255536 | 0.00017753 | deg |
M | 323.7959523720099 | 4.1135e-05 | deg |
tp | 2459156.967253315925 (2020-Nov-03.46725332) | 0.0001785 | TDB |
period | 1555.853968940877 4.26 | 1.9453e-05 5.326e-08 | d yr |
n | .231384183340204 | 2.893e-09 | deg/d |
Q | 2.880279324657242 | 2.4008e-08 | au |
|
| | Orbit Determination Parameters
Additional Information
|